Location: Unspecified
(43.4680°N, 87.1740°E)
Time: 21:26:38
(UTC+00:00)

NOSS 7 (H) - Pass Details

Date: 17 April 2021
Orbit: 367 x 1788 km, 63.3° (Epoch: 12 May)

Event Time Altitude Azimuth Distance (km) Brightness Sun altitude
Rises 13:44:58 0° 209° (SSW) 2,792 8.5 -9.0°
Reaches altitude 10° 13:47:28 10° 206° (SSW) 1,722 7.4 -9.5°
Maximum altitude 13:51:06 63° 125° (SE) 479 4.2 -10.1°
Drops below altitude 10° 13:54:05 10° 43° (NE) 1,414 6.7 -10.5°
Sets 13:55:57 0° 40° (NE) 2,231 7.8 -10.8°
